Location: Estes Par
(40.3770°N, 10.0000°W)
Time: 15:55:07
(UTC-06:00)

OTV 5 (USA 277) - Visible Passes

Search period start: 20 July 2018 00:00
Search period end: 30 July 2018 00:00
Orbit: 312 x 321 km, 54.5° (Epoch: 05 July)

Date Brightness Start Highest point End Pass type
(mag) Time Alt. Az. Time Alt. Az. Time Alt. Az.
25 Jul ? 22:53:52 10° SE 22:54:40 11° SE 22:55:29 10° ESE visible
28 Jul ? 22:02:44 16° SSE 22:03:37 18° SE 22:05:34 10° E visible
29 Jul ? 22:16:49 29° SSW 22:17:56 55° SE 22:20:34 10° NE visible
